Lexington Weather

Lexington, Massachusetts, USA

46°F
4/22/2024 9:43am 
  • Lexington Conditions: Clear
  • Temperature: 45.7°F / 7.6°CWarmer 2.4°F than last hour.
  • Dew Point: 23.4°FDecreased 3.9°Fsince last hour.
  • Relative Humidity: 41%Decreased 12.0% since last hour.
  • Wind: Calm, 10-min avg: Calm, gust: 5 mph
  • Barometer: 29.97 in Steady
  • Visibility: 10 miles
  • Rain Today: 0.00 in
  •   

Regional Weather Roundup
for Boston, MA

        
000
ASUS41 KBOX 181810
RWRBOX

REGIONAL WEATHER ROUNDUP
NATIONAL WEATHER SERVICE BOSTON/NORTON MA
200 PM EDT THU APR 18 2024

NOTE:  "FAIR" INDICATES FEW OR NO CLOUDS BELOW 12,000 FEET WITH NO 
SIGNIFICANT WEATHER AND/OR OBSTRUCTIONS TO VISIBILITY.

MAZALL-181900-
EASTERN MASSACHUSETTS
  
CITY           SKY/WX    TMP DP  RH WIND       PRES   REMARKS
BOSTON         CLOUDY    47  39  74 NE12      30.18S                  
6HR MIN TEMP:  45; 6HR MAX TEMP:  47; 6HR PCP: TRACE;                

BEVERLY        CLOUDY    48  35  60 E9        30.18R                  
LAWRENCE       CLOUDY    50  36  58 NE8       30.20R                  
BEDFORD        LGT RAIN  47  35  63 E10       30.17R                  
NORWOOD        CLOUDY    51  35  54 E10       30.16S                  
MARSHFIELD     CLOUDY    48  39  71 NE10      30.17S                  
PLYMOUTH       CLOUDY    50  35  56 E13       30.14S                  
TAUNTON        CLOUDY    51  32  48 VRB5      30.14S                  
NEW BEDFORD    CLOUDY    50  33  52 E9G18     30.13S                  
$$

MAZALL-181900-
CAPE COD AND THE ISLANDS
  
CITY           SKY/WX    TMP DP  RH WIND       PRES   REMARKS
FALMOUTH       CLOUDY    50  32  50 E17G26    30.12F                  
HYANNIS        CLOUDY    50  32  50 E9G20     30.12F                  
CHATHAM        CLOUDY    48  39  71 E10       30.15F                  
PROVINCETOWN   CLOUDY    49  40  71 E12       30.17F                  
NANTUCKET      CLOUDY    48  38  68 NE16      30.11F                  
MARTHAS VNYRD  CLOUDY    48  38  68 E15G25    30.11F                  
$$
 
MAZALL-181900-
CENTRAL AND WESTERN MASSACHUSETTS
  
CITY           SKY/WX    TMP DP  RH WIND       PRES   REMARKS
WORCESTER      LGT RAIN  42  36  79 NE8       30.14R                  
6HR MIN TEMP:  41; 6HR MAX TEMP:  44; 6HR PCP:  0.05;                

FITCHBURG      LGT RAIN  46  35  65 NE3       30.18R                  
ORANGE         LGT RAIN  44  39  82 N5        30.18R                  
SPRINGFIELD    LGT RAIN  43  36  75 VRB6      30.14S                  
WESTFIELD      LGT RAIN  44  39  82 NE5       30.17R                  
NORTH ADAMS    CLOUDY    46  38  73 E16G24    30.14R                  
PITTSFIELD     CLOUDY    42  36  79 E6        30.12R                  
$$
 
RIZALL-181900-
RHODE ISLAND
  
CITY           SKY/WX    TMP DP  RH WIND       PRES   REMARKS
PROVIDENCE     CLOUDY    49  34  56 E12       30.14S                  
6HR MIN TEMP:  47; 6HR MAX TEMP:  50; 6HR PCP: TRACE;                

NEWPORT        CLOUDY    47  34  60 E7        30.12S                  
BLOCK ISLAND   CLOUDY    43  35  73 E15G23    30.10F                  
SMITHFIELD     CLOUDY    47  33  58 E7        30.14S                  
WESTERLY       LGT RAIN  46  37  71 NE12G18   30.12R                  
$$
 
CTZALL-181900-
CONNECTICUT
  
CITY           SKY/WX    TMP DP  RH WIND       PRES   REMARKS
BRADLEY INTL   LGT RAIN  46  40  79 NE13      30.15S                  
6HR MIN TEMP:  46; 6HR MAX TEMP:  48; 6HR PCP:  0.33;                

HARTFORD       CLOUDY    45  41  86 NE9       30.15R FOG              
PLAINVILLE     LGT RAIN  44  42  95 NE10      30.14S FOG              
BRIDGEPORT     CLOUDY    45  42  89 NE13      30.12R                  
DANBURY        CLOUDY    45  41  86 VRB6      30.13R                  
GROTON         CLOUDY    48  36  63 NE13      30.12R                  
NEW HAVEN      CLOUDY    48  42  80 NE8       30.12F                  
CHESTER        CLOUDY    46  37  71 NE8G16    30.12S                  
MERIDEN        CLOUDY    45  40  82 N9        30.14R                  
WILLIMANTIC    CLOUDY    47  34  60 E6        30.14R                  
OXFORD         CLOUDY    43  39  87 E6        30.12R                  
$$

MEZ002-015-021-024-NHZ003-005-008-011-012-014-VTZ005-008-181900-
NORTHERN NEW ENGLAND
  
CITY           SKY/WX    TMP DP  RH WIND       PRES   REMARKS
PORTLAND ME    MOSUNNY   50  39  66 E14       30.21F                  
6HR MIN TEMP:  44; 6HR MAX TEMP:  50;                                

BANGOR ME      MOSUNNY   59  32  36 SW7       30.18F                  
CONCORD NH     LGT RAIN  50  33  52 S9        30.18R                  
MANCHESTER NH  LGT RAIN  50  33  52 SE6       30.17S                  
NASHUA NH      LGT RAIN  46  44  93 CALM      30.20R                  
PORTSMOUTH NH  CLOUDY    49  36  61 E10       30.19R                  
JAFFREY NH     LGT RAIN  42  37  82 VRB3      30.17R                  
KEENE NH       LGT RAIN  43  40  89 E3        30.19R                  
BURLINGTON VT  LGT RAIN  45  40  82 S9        30.13R                  
MT. WASHINGTON PTSUNNY   28  27  93 SE12        N/A  WCI  18          
$$

NYZ052-076-181900-
EASTERN NEW YORK
  
CITY           SKY/WX    TMP DP  RH WIND       PRES   REMARKS
ALBANY         CLOUDY    48  37  65 SE5       30.16R                  
6HR MIN TEMP:  46; 6HR MAX TEMP:  48; 6HR PCP: TRACE;                

NEW YORK CITY  CLOUDY    46  40  79 NE23      30.12R                  
6HR MIN TEMP:  45; 6HR MAX TEMP:  48; 6HR PCP: TRACE;                

$$
 
ANZALL-181900-
MARINE OBSERVATIONS
  
STATION/POSITION TIME  TEMP    WIND        PRES    VSBY  WAVE
                       AIR SEA DIR/SP/G                  HT/PER
                 (UTC) (F)     (DEG/KT/KT) (MB)    (MI)  (FT/S)
BOSTON BUOY      1750   45      80/  8/ 10 1021.8R         3/11
BUZZARDS BAY     1700   45      70/ 16/ 18 1020.2F
NANTUCKET SOUND  1750   46 47   80/ 16/ 19 1019.8F         2/ 3
MASS BAY-STELLWA 1604   45 45   90/ 10/ 12 1022.0F  1 7/8  2/ 4
ISLE OF SHOALS   1700   44      60/ 12/ 13 1021.7F
S OF BLOCK IS    1756      45                N/A           7/ 6
$$

......................KEY.........................
  SKY/WX - SKY CONDITION/PRESENT WEATHER
  TMP    - TEMPERATURE IN FAHRENHEIT
  DWPT   - DEWPOINT IN FAHRENHEIT
  RH     - RELATIVE HUMIDITY IN PERCENT
  WIND   - DIRECTION AND SPEED IN MPH
  PRES   - MEAN SEA LEVEL PRESSURE IN INCHES OF HG
  WCI    - WIND CHILL INDEX
  VSB    - VISIBILITY IN MILES
  HX     - HEAT INDEX
  TC     - TEMPERATURE IN CELSIUS
  VRB    - VARIABLE WIND DIRECTION
  N/A    - NOT AVAILABLE
  
      

Other recent Regional Weather Roundups

Mon Apr 22, 9:10am EDT

Mon Apr 22, 8:10am EDT

Mon Apr 22, 7:10am EDT

Mon Apr 22, 6:10am EDT

Mon Apr 22, 5:10am EDT

Mon Apr 22, 4:10am EDT

Mon Apr 22, 3:10am EDT

Mon Apr 22, 2:10am EDT

Mon Apr 22, 1:10am EDT

Mon Apr 22, 12:10am EDT

Sun Apr 21, 11:10pm EDT

Sun Apr 21, 10:10pm EDT

Sun Apr 21, 9:10pm EDT

Sun Apr 21, 8:10pm EDT

Sun Apr 21, 7:10pm EDT

Sun Apr 21, 6:10pm EDT

Sun Apr 21, 5:10pm EDT

Sun Apr 21, 4:10pm EDT

Sun Apr 21, 3:10pm EDT

Sun Apr 21, 2:10pm EDT

Sun Apr 21, 1:10pm EDT

Sun Apr 21, 12:10pm EDT

Sun Apr 21, 11:10am EDT

Sun Apr 21, 10:10am EDT

Sun Apr 21, 9:10am EDT

Sun Apr 21, 8:10am EDT

Sun Apr 21, 7:10am EDT

Sun Apr 21, 6:10am EDT

Sun Apr 21, 5:10am EDT

Sun Apr 21, 4:10am EDT

Sun Apr 21, 3:10am EDT

Sun Apr 21, 2:10am EDT

Sun Apr 21, 1:10am EDT

Sun Apr 21, 12:10am EDT

Sat Apr 20, 11:10pm EDT

Sat Apr 20, 10:10pm EDT

Sat Apr 20, 9:10pm EDT

Sat Apr 20, 8:10pm EDT

Sat Apr 20, 7:10pm EDT

Sat Apr 20, 6:10pm EDT

Sat Apr 20, 5:10pm EDT

Sat Apr 20, 4:10pm EDT

Sat Apr 20, 3:10pm EDT

Sat Apr 20, 2:10pm EDT

Sat Apr 20, 1:10pm EDT

Sat Apr 20, 12:10pm EDT

Sat Apr 20, 11:10am EDT

Sat Apr 20, 10:10am EDT

Sat Apr 20, 9:10am EDT

Sat Apr 20, 8:10am EDT

Sat Apr 20, 7:10am EDT

Sat Apr 20, 6:10am EDT

Sat Apr 20, 5:10am EDT

Sat Apr 20, 4:10am EDT

Sat Apr 20, 3:10am EDT

Sat Apr 20, 2:10am EDT

Sat Apr 20, 1:10am EDT

Sat Apr 20, 12:10am EDT

Fri Apr 19, 11:10pm EDT

Fri Apr 19, 10:10pm EDT

Fri Apr 19, 9:10pm EDT

Fri Apr 19, 8:10pm EDT

Fri Apr 19, 7:10pm EDT

Fri Apr 19, 6:10pm EDT

Fri Apr 19, 5:10pm EDT

Fri Apr 19, 4:10pm EDT

Fri Apr 19, 3:10pm EDT

Fri Apr 19, 2:10pm EDT

Fri Apr 19, 1:10pm EDT

Fri Apr 19, 12:10pm EDT

Fri Apr 19, 11:10am EDT

Fri Apr 19, 10:10am EDT

Fri Apr 19, 9:10am EDT

Fri Apr 19, 8:10am EDT

Fri Apr 19, 7:10am EDT

Fri Apr 19, 6:10am EDT

Fri Apr 19, 5:10am EDT

Fri Apr 19, 4:10am EDT

Fri Apr 19, 3:10am EDT

Fri Apr 19, 2:10am EDT

Fri Apr 19, 1:10am EDT

Fri Apr 19, 12:10am EDT

Thu Apr 18, 11:10pm EDT

Thu Apr 18, 10:10pm EDT

Thu Apr 18, 9:10pm EDT

Thu Apr 18, 8:10pm EDT

Thu Apr 18, 7:10pm EDT

Thu Apr 18, 6:10pm EDT

Thu Apr 18, 5:10pm EDT

Thu Apr 18, 4:10pm EDT

Thu Apr 18, 3:10pm EDT

Thu Apr 18, 1:10pm EDT

Thu Apr 18, 12:10pm EDT

Thu Apr 18, 11:10am EDT

Thu Apr 18, 10:10am EDT

Thu Apr 18, 9:10am EDT

Thu Apr 18, 8:10am EDT

Thu Apr 18, 7:10am EDT

Thu Apr 18, 6:10am EDT

Thu Apr 18, 5:10am EDT

Thu Apr 18, 4:10am EDT

Thu Apr 18, 3:10am EDT

Thu Apr 18, 2:10am EDT

Thu Apr 18, 1:10am EDT

Thu Apr 18, 12:10am EDT

Wed Apr 17, 11:10pm EDT

Wed Apr 17, 10:10pm EDT

Wed Apr 17, 9:10pm EDT

Wed Apr 17, 8:10pm EDT

Wed Apr 17, 7:10pm EDT

Wed Apr 17, 6:10pm EDT

Wed Apr 17, 5:10pm EDT

Wed Apr 17, 4:10pm EDT

Wed Apr 17, 3:10pm EDT

Wed Apr 17, 2:10pm EDT

Wed Apr 17, 1:10pm EDT

Wed Apr 17, 12:10pm EDT

Wed Apr 17, 11:10am EDT

Wed Apr 17, 10:10am EDT

Wed Apr 17, 9:10am EDT

Wed Apr 17, 8:10am EDT

Wed Apr 17, 7:10am EDT

Wed Apr 17, 6:10am EDT

Wed Apr 17, 5:10am EDT

Wed Apr 17, 4:10am EDT

Wed Apr 17, 3:10am EDT

Wed Apr 17, 2:10am EDT

Wed Apr 17, 1:10am EDT

Wed Apr 17, 12:10am EDT

Tue Apr 16, 11:10pm EDT

Tue Apr 16, 10:10pm EDT

Tue Apr 16, 9:10pm EDT

Tue Apr 16, 8:10pm EDT

Tue Apr 16, 7:10pm EDT

Tue Apr 16, 6:10pm EDT

Tue Apr 16, 5:10pm EDT

Tue Apr 16, 4:10pm EDT

Tue Apr 16, 3:10pm EDT

Tue Apr 16, 2:10pm EDT

Tue Apr 16, 1:10pm EDT

Tue Apr 16, 12:10pm EDT

Tue Apr 16, 11:10am EDT

Tue Apr 16, 10:10am EDT

Tue Apr 16, 9:10am EDT

Tue Apr 16, 8:10am EDT

Tue Apr 16, 7:10am EDT

Tue Apr 16, 6:10am EDT

Tue Apr 16, 5:10am EDT

Tue Apr 16, 4:10am EDT

Tue Apr 16, 3:10am EDT

Tue Apr 16, 2:10am EDT

Tue Apr 16, 1:10am EDT

Tue Apr 16, 12:10am EDT

Mon Apr 15, 11:10pm EDT

Mon Apr 15, 10:10pm EDT

Mon Apr 15, 9:10pm EDT

Mon Apr 15, 8:10pm EDT

Mon Apr 15, 7:10pm EDT

Mon Apr 15, 6:10pm EDT

Mon Apr 15, 5:10pm EDT

Mon Apr 15, 4:10pm EDT

Mon Apr 15, 3:10pm EDT

Mon Apr 15, 2:10pm EDT

Mon Apr 15, 1:10pm EDT

Mon Apr 15, 12:10pm EDT

Mon Apr 15, 11:10am EDT

Mon Apr 15, 10:10am EDT